Dewpoint
42 45 46 45 45 44 46 46 47 50 50 50 49 49 47 46 44 44 44 43 43 43 43 43 43 43 43
41 45 45 45 44 43 44 44 45 48 50 49 49 47 45 44 43 42 41 41 40 40 40 40 39 40 40
41 45 44 45 42 42 41 41 41 46 49 49 48 46 44 43 42 40 39 38 38 37 37 37 37 36 37
41 42 42 42 41 39 38 38 38 39 45 47 46 44 43 41 40 38 38 37 36 36 35 34 34 33 34
40 41 39 39 39 39 37 36 35 37 38 38 40 39 38 37 37 37 36 35 35 34 33 32 32 32 31
39 39 39 39 40 38 35 34 33 36 36 35 38 37 36 35 36 36 35 34 33 32 31 31 31 30 30
39 39 39 40 40 37 36 35 33 34 36 32 36 35 36 34 35 35 34 32 31 30 29 29 29 28 28
40 39 40 40 40 38 36 32 33 33 36 31 34 34 34 34 34 35 33 31 29 27 27 28 28 27 27
39 40 41 42 38 36 33 33 30 31 31 32 32 32 33 30 32 34 32 29 25 24 26 27 28 28 26
32 32 33 36 38 37 35 33 29 29 28 29 29 27 27 28 29 29 27 24 22 23 25 26 27 23 24
30 29 29 29 29 30 31 32 28 24 23 25 24 24 23 24 24 22 22 21 20 22 25 25 26 24 21
28 27 27 26 26 26 25 24 24 24 25 23 20 22 20 18 21 20 21 20 21 21 21 24 25 26 25
27 26 26 25 24 22 22 22 22 23 23 24 23 23 19 16 16 19 20 20 21 20 20 21 21 20 19
26 24 25 25 24 24 21 21 21 21 23 26 25 22 16 19 17 16 20 14 20 20 21 22 22 21 20
24 25 24 24 24 24 24 22 18 18 19 22 23 23 22 16 15 18 18 18 19 19 19 19 21 21 21
25 26 26 25 24 24 23 20 19 18 16 17 15 13 16 20 22 17 16 17 18 19 20 13 17 21 21
26 27 26 24 23 22 21 20 18 16 15 11 6 4 5 9 18 22 16 15 15 15 18 17 15 19 20
Lifted_Index
7 7 6 5 4 4 3 3 3 2 2 3 3 3 4 5 6 7 7 7 8 8 9 9 10 10 10
7 7 6 5 4 3 3 3 3 3 3 3 3 4 5 6 6 7 8 8 8 9 10 11 11 11 11
7 6 5 4 4 3 3 3 4 4 4 4 4 5 6 6 7 8 8 9 9 10 11 12 13 13 13
6 5 5 4 3 3 4 4 4 4 4 5 5 6 7 7 8 8 9 10 11 12 13 14 14 15 15
5 5 4 4 4 4 4 5 5 5 5 5 6 7 7 8 9 9 10 11 12 14 14 15 16 16 16
5 5 4 4 4 4 5 5 5 6 6 6 7 7 8 9 9 10 11 12 14 15 15 16 16 17 17
5 5 5 5 5 5 5 5 6 6 6 7 7 8 9 10 11 11 12 13 14 15 16 16 17 17 17
6 6 6 5 5 5 5 5 6 6 7 7 8 9 9 11 12 12 13 14 15 16 17 17 17 17 17
6 6 6 6 6 6 6 6 6 7 7 8 8 9 10 11 13 14 14 15 16 17 17 18 18 18 17
6 6 6 6 6 6 6 6 6 7 8 8 9 9 10 11 13 14 15 16 17 18 18 18 18 18 17
6 6 7 7 7 7 7 7 7 8 9 9 10 10 10 11 13 15 16 17 17 18 18 18 18 17 17
7 7 7 7 8 8 9 9 10 11 11 11 11 11 11 11 13 15 16 17 17 17 17 17 17 17 17
7 8 8 9 9 10 11 11 12 12 13 13 13 13 13 13 13 15 16 16 17 17 17 17 17 17 17
8 9 9 10 11 11 12 12 12 12 13 14 14 14 14 14 15 15 16 16 16 16 16 16 16 17 16
9 9 10 11 11 12 12 12 12 12 12 13 14 15 15 15 15 16 16 16 16 16 16 16 16 16 17
10 10 10 10 10 11 12 12 12 11 11 12 13 14 14 15 16 16 16 16 16 16 16 16 16 16 16
10 10 10 10 10 10 11 12 11 11 11 12 12 12 12 13 16 17 16 16 16 16 16 16 15 16 16